GFSCGP_prec_cloud_120.txt.gz
Cloud_Cover
0 0 0 0 0 0 0 0 0 0 0 0 0 0 0 0 0 0 0 0 0 0 0 0 1 0 0 65 100 77 39 20 50 95 5 7 78 100 93 100 87 98 94 100
0 0 0 0 0 0 0 0 0 0 0 0 0 0 0 0 0 0 0 0 0 0 0 0 0 0 0 4 29 58 100 74 36 21 98 6 60 90 100 79 98 100 99 100
0 0 0 0 0 0 0 0 0 0 0 0 0 0 0 0 0 0 0 0 0 0 0 0 0 0 2 9 4 15 67 10 13 91 100 60 5 90 92 100 45 85 100 82
0 0 0 0 0 0 0 0 0 0 0 0 0 0 0 0 0 0 0 0 0 0 0 0 0 0 0 0 0 0 11 12 77 84 96 66 100 81 97 35 100 37 92 48
0 0 0 0 0 0 0 0 0 0 0 0 0 0 0 0 0 0 0 0 0 0 0 0 0 0 0 0 0 42 3 58 98 96 16 7 100 21 88 96 5 8 100 11
0 0 0 0 0 0 0 0 0 0 0 0 0 0 0 0 0 0 0 0 0 0 0 0 0 0 0 0 0 0 76 90 45 100 90 75 51 92 45 40 90 48 47 5
0 0 0 0 0 0 0 0 0 0 1 2 0 0 0 0 0 0 0 0 0 0 0 0 0 0 0 0 0 0 2 26 100 78 100 94 100 59 100 76 45 9 5 5
0 0 0 0 0 0 0 0 0 0 0 0 0 0 2 0 0 0 0 0 0 0 0 0 0 0 0 0 0 0 0 0 10 12 14 42 62 100 79 100 5 21 5 5
0 0 0 0 0 0 0 0 0 0 0 0 0 2 0 0 0 0 0 0 0 0 0 0 0 0 0 0 0 0 0 0 0 0 25 70 79 60 45 98 78 40 6 20
0 0 0 0 0 0 0 0 0 3 0 2 2 5 4 1 0 0 0 0 0 0 0 0 0 0 0 0 0 0 0 0 0 16 98 100 62 44 34 56 90 68 50 14
0 0 0 0 0 0 0 0 0 0 0 0 0 1 6 0 0 0 0 0 0 0 0 0 0 0 0 0 0 0 0 0 0 23 34 72 94 98 90 87 42 29 34 44
0 0 0 0 0 0 0 0 0 0 0 4 3 0 4 0 0 0 0 0 0 0 0 0 0 0 0 0 0 0 0 0 0 5 63 22 1 52 100 98 62 42 41 23
0 0 0 1 3 0 1 1 0 0 0 0 0 0 5 5 5 0 0 0 0 0 0 0 0 0 0 0 0 0 0 0 0 9 98 7 18 4 35 54 15 85 54 39
0 0 0 0 0 1 3 1 4 5 0 0 0 0 5 2 1 3 0 0 0 0 0 0 0 0 0 4 14 4 4 2 2 100 58 88 44 21 26 95 67 79 100 57
0 0 0 0 0 0 0 0 0 0 0 0 0 0 0 0 0 0 0 0 0 0 0 0 0 0 2 59 48 81 93 43 86 87 97 62 90 81 42 81 40 11 12 15
0 0 0 0 0 0 0 0 0 0 0 0 0 0 5 0 0 0 0 0 0 0 0 0 0 0 0 72 100 100 60 99 96 100 97 56 75 100 100 67 50 26 28 12
0 0 0 0 0 0 0 0 0 0 0 0 1 5 0 0 0 0 0 0 0 0 0 0 0 0 0 56 45 91 100 82 100 100 100 97 100 100 100 100 100 100 100 100
0 0 0 0 0 0 0 0 0 0 0 2 4 0 0 0 0 0 0 0 0 0 0 0 0 2 76 48 61 100 98 100 96 93 72 95 81 95 98 100 100 100 100 100
0 0 0 0 0 0 0 3 0 4 2 12 0 0 0 3 0 2 12 0 0 0 0 0 31 53 72 48 100 100 100 88 100 93 100 100 100 100 86 100 99 100 99 98
0 0 0 0 4 0 4 4 0 0 1 55 1 0 5 2 5 71 1 0 0 0 0 0 59 55 58 93 100 100 100 100 100 100 100 67 75 100 100 63 71 99 73 66
5 2 5 5 6 7 8 1 0 2 76 60 1 2 0 4 3 0 0 0 0 2 42 16 100 79 98 100 100 100 100 100 100 100 100 100 100 100 21 68 61 47 84 58
4 5 28 87 58 40 16 1 1 48 2 0 0 0 0 0 0 0 0 0 0 0 33 42 99 96 100 100 100 100 100 100 100 100 100 100 100 100 99 92 75 96 80 95
3 5 5 56 78 52 5 5 0 0 0 0 5 0 0 0 0 0 0 0 0 3 23 64 41 35 100 100 100 100 100 100 100 100 100 100 100 100 99 100 100 100 100 100
67 6 4 5 13 3 4 1 2 0 0 1 1 0 0 0 0 0 0 0 17 68 76 49 30 29 100 100 100 100 100 100 100 100 100 100 100 100 100 100 100 100 100 100
54 39 5 23 72 11 32 18 5 0 0 0 0 0 0 0 0 0 0 76 98 95 100 100 41 100 100 100 100 100 100 100 100 100 100 100 100 100 100 100 99 100 100 100
5 5 5 6 90 39 14 4 0 0 0 0 0 5 0 0 0 0 4 26 88 67 72 98 100 100 100 100 100 100 100 100 100 100 100 100 100 100 100 100 100 100 100 100

GFSCGP_prec_cloud_123.txt.gz
Cloud_Cover
0 0 0 0 0 0 0 0 0 0 0 0 0 0 0 0 0 0 0 0 0 0 0 0 0 0 0 0 4 93 43 5 5 91 42 6 5 12 49 89 46 6 5 37
0 0 0 0 0 0 0 0 0 0 0 0 0 0 0 0 0 0 0 0 0 0 0 0 0 0 8 8 4 3 77 62 84 61 81 98 17 10 82 90 5 100 16 97
0 0 0 0 0 0 0 0 0 0 0 0 0 1 0 0 0 0 0 0 0 0 0 0 0 9 18 20 5 6 21 58 81 34 12 94 100 76 37 11 12 18 100 78
0 0 0 0 0 0 0 0 0 0 0 16 0 28 3 0 0 0 0 0 0 0 0 0 0 0 7 54 26 100 76 91 91 7 90 80 100 100 84 46 59 94 64 54
0 0 0 0 0 0 0 0 0 0 0 0 3 1 98 0 4 4 1 0 0 0 0 0 0 0 0 0 0 3 76 38 7 0 13 19 100 84 64 5 98 100 93 12
0 0 0 0 0 0 0 0 0 0 1 8 23 1 6 59 54 6 0 0 0 0 0 0 0 0 0 0 0 0 30 83 23 12 62 6 27 8 31 16 78 100 89 6
0 0 0 0 0 0 0 0 1 31 97 100 7 0 0 0 0 0 0 0 0 0 0 0 0 0 0 0 0 0 0 0 1 6 99 61 5 5 99 90 99 91 69 56
0 4 0 0 0 0 0 0 0 0 5 4 5 3 27 0 0 0 0 0 0 0 0 0 0 0 0 0 0 0 0 0 0 1 2 20 98 47 12 81 97 86 100 45
0 0 0 0 0 0 4 0 1 0 0 1 5 69 18 1 0 0 0 0 1 0 0 0 0 0 0 0 0 0 0 0 0 0 2 0 5 26 7 100 61 88 99 36
0 0 0 0 0 0 0 0 0 2 4 2 18 5 52 11 11 2 5 4 0 0 0 0 0 0 0 0 0 0 0 0 0 0 0 35 4 4 4 3 92 48 25 97
0 0 0 0 0 0 2 1 3 1 0 0 4 19 9 2 28 9 1 1 0 0 0 0 0 0 0 0 0 0 0 0 0 0 5 12 38 42 40 6 0 32 16 100
2 0 0 0 4 0 0 0 0 0 2 5 4 1 22 0 0 0 2 0 0 0 0 0 0 0 0 0 0 0 0 0 0 0 0 1 0 12 51 27 11 0 4 82
0 0 0 0 2 16 1 0 0 0 0 0 1 0 78 16 48 45 5 4 3 0 0 0 0 0 0 0 0 0 0 0 0 9 1 0 0 0 16 25 25 34 24 1
0 0 0 0 1 20 8 5 2 0 0 2 2 0 5 5 5 1 0 4 3 0 0 0 0 0 0 0 0 6 66 12 30 28 62 10 9 6 4 6 16 26 34 7
0 0 0 0 0 0 0 0 0 0 0 0 0 0 0 3 0 0 0 1 3 0 0 0 0 0 0 0 6 85 8 16 95 97 58 64 71 48 71 82 49 42 0 2
0 0 0 0 0 0 0 0 0 0 0 0 0 0 5 0 0 2 5 5 4 0 0 0 0 0 0 0 5 59 48 59 10 34 12 41 78 40 31 99 57 54 0 3
0 1 4 0 0 0 0 0 0 0 0 0 0 4 7 21 56 5 3 1 2 5 0 0 0 0 0 4 18 61 76 91 86 58 60 45 23 47 29 48 91 90 77 81
0 0 0 0 0 0 0 0 0 0 0 0 0 5 5 5 3 4 0 19 16 2 0 0 1 0 0 8 82 39 38 91 55 46 72 100 56 65 48 29 95 80 98 81
0 4 0 0 0 0 1 4 24 4 5 5 12 30 4 22 27 6 78 8 5 0 0 0 0 0 20 22 100 63 31 26 88 87 93 97 98 36 100 82 68 100 100 98
5 5 2 0 3 5 5 8 0 0 0 5 28 36 71 34 35 42 42 8 0 0 0 0 6 100 0 4 64 17 83 100 100 83 92 85 86 99 95 100 99 88 100 32
60 22 14 12 29 20 29 88 8 1 18 16 28 42 100 52 43 15 3 4 1 0 0 0 30 62 8 34 98 34 100 100 100 100 90 88 100 52 44 74 99 92 47 76
5 53 74 94 100 69 29 33 8 82 5 94 74 71 35 6 80 72 89 5 4 0 0 0 21 13 63 71 100 100 100 100 100 100 100 100 100 100 100 85 50 99 99 95
5 4 5 34 91 97 56 7 11 4 5 3 24 96 72 100 100 98 51 5 5 0 0 0 26 23 74 93 48 100 100 100 100 100 100 100 100 100 100 98 100 66 100 100
71 26 51 43 4 29 92 34 100 43 22 54 56 100 100 99 94 65 22 0 6 0 1 83 48 100 100 56 91 100 100 100 100 100 100 100 100 100 100 100 100 100 100 100
96 76 87 39 92 74 91 98 5 76 24 24 26 100 100 98 100 100 55 2 20 11 2 41 70 98 100 85 100 100 100 100 100 100 100 100 100 100 100 100 100 100 100 100
100 95 70 81 100 100 100 11 5 83 41 7 85 90 75 100 100 100 30 11 30 12 14 24 59 100 100 100 100 100 100 100 100 100 100 100 100 100 100 100 100 100 99 100

GFSCGP_prec_cloud_129.txt.gz
Cloud_Cover
0 0 0 0 0 0 0 0 0 0 0 0 0 0 0 0 0 0 0 0 0 0 0 0 11 0 0 0 0 0 0 0 5 5 37 93 5 42 38 57 100 100 73 6
0 0 0 0 0 0 0 0 0 0 0 0 0 0 0 0 0 0 0 0 1 0 0 0 17 94 40 98 90 4 0 0 45 99 22 5 4 2 5 5 5 59 98 80
0 0 0 0 0 0 0 0 0 0 0 0 0 15 0 0 0 0 0 0 0 0 0 0 0 32 0 92 100 2 0 0 0 31 37 5 5 1 14 5 5 72 23 4
0 0 0 0 0 0 0 0 0 0 0 0 0 10 3 4 4 0 0 0 0 0 0 0 0 18 1 9 88 8 0 0 5 35 55 26 87 95 15 63 87 26 100 56
0 0 0 0 0 0 0 0 0 0 0 0 0 2 7 81 5 0 0 0 0 0 0 0 0 0 18 38 100 9 0 0 12 80 87 25 6 50 24 0 24 5 100 49
0 0 0 0 0 0 0 0 0 0 3 2 2 100 54 78 8 0 0 0 0 0 0 0 0 0 0 0 0 5 0 0 3 50 58 20 72 41 31 41 65 12 57 56
0 0 0 0 0 0 0 0 0 0 2 40 81 100 32 59 51 6 0 0 0 0 0 0 0 0 0 0 0 0 0 0 0 0 4 0 0 1 0 0 0 0 10 5
0 0 0 0 0 0 0 0 0 0 3 16 70 63 33 30 86 55 12 5 0 0 0 0 0 0 0 0 0 0 0 0 0 0 1 7 0 0 0 0 0 0 0 0
0 1 0 0 0 0 0 0 0 0 0 10 85 82 18 5 41 100 95 5 0 0 0 0 0 0 0 0 0 0 0 0 0 0 0 0 0 0 0 0 0 0 0 0
0 0 0 0 0 0 0 0 0 0 0 0 74 17 31 16 49 5 2 2 1 0 0 0 0 0 0 0 21 99 70 6 9 0 0 0 0 0 0 0 0 0 4 0
0 0 0 0 0 0 0 0 0 0 0 0 0 21 5 5 5 51 24 5 0 0 0 0 0 0 0 0 0 27 14 5 37 14 4 0 0 0 0 0 0 0 0 0
0 0 0 0 0 0 0 0 0 0 0 0 0 39 71 56 98 85 7 0 0 0 0 0 0 0 0 0 0 0 0 0 0 3 100 100 100 0 0 0 0 0 0 2
0 0 0 0 0 0 2 23 0 0 0 0 0 0 97 30 6 5 3 0 0 0 0 0 0 0 0 0 0 0 0 0 0 0 0 84 36 1 4 32 1 0 0 0
0 0 0 0 0 0 0 6 93 19 0 0 0 0 0 86 97 28 5 5 5 0 0 0 0 0 0 0 0 0 0 0 0 0 0 0 0 0 91 83 0 0 0 0
0 0 0 0 0 0 0 0 4 16 20 3 0 0 0 1 15 5 1 0 0 0 0 0 0 0 0 0 0 0 0 0 0 0 0 0 0 0 0 0 0 0 0 0
0 0 0 0 0 0 0 0 0 0 0 0 0 0 0 0 0 0 0 0 0 0 0 0 0 0 0 0 0 0 0 0 0 0 0 0 0 0 0 0 0 0 0 0
0 0 0 0 0 0 0 0 0 0 0 0 0 0 0 0 0 0 0 0 0 0 0 0 0 0 0 0 0 0 0 0 0 0 0 0 0 0 0 1 2 5 6 0
0 2 3 0 0 0 0 0 0 0 0 0 0 0 0 0 0 0 0 0 0 0 0 0 0 0 0 0 0 0 0 0 0 0 0 0 0 0 0 1 2 12 32 24
0 0 0 0 0 0 0 0 0 0 0 0 0 0 0 0 0 0 0 0 0 0 0 0 0 0 0 0 0 0 0 0 0 0 0 0 0 0 0 2 13 48 100 24
0 0 0 0 0 0 0 0 0 2 0 0 0 0 0 1 2 0 0 0 0 0 1 1 5 0 0 0 0 0 0 0 0 9 5 0 0 9 81 100 100 98 100 28
3 5 3 2 1 0 0 0 2 0 1 0 0 2 0 0 2 0 0 0 0 3 13 0 0 0 0 0 0 0 0 0 1 6 17 2 94 96 100 100 100 96 99 100
4 5 5 5 36 4 2 10 5 4 0 4 4 5 3 3 10 60 11 0 0 0 0 7 100 5 0 0 0 0 0 1 98 100 8 90 100 100 100 100 92 72 100 100
5 5 29 42 81 84 10 5 5 3 5 2 5 6 56 5 7 8 0 0 0 0 0 7 58 0 0 0 0 0 4 34 100 100 86 99 99 100 100 100 100 100 100 100
25 5 6 4 7 6 71 5 5 2 4 0 1 4 27 62 5 23 4 0 0 2 22 80 80 0 0 0 0 0 28 100 100 100 100 100 100 100 100 100 100 100 100 100
93 12 5 25 17 5 18 5 5 2 6 40 30 56 100 24 6 3 0 0 2 98 100 98 89 0 0 0 0 32 100 100 100 85 100 100 100 100 100 100 100 100 99 100
60 83 5 5 5 5 3 2 5 3 0 8 79 48 33 38 2 0 0 0 0 64 88 9 50 3 89 10 0 5 98 100 100 99 100 100 100 100 99 100 100 99 99 100

GFSCGP_prec_cloud_135.txt.gz
Cloud_Cover
0 0 0 0 0 0 0 0 0 0 0 0 0 0 0 0 0 0 0 0 0 0 0 0 1 19 68 57 14 0 0 0 0 2 14 90 80 22 52 7 88 100 100 100
0 0 0 0 0 0 0 0 0 0 0 0 0 0 0 0 0 0 0 2 0 0 0 0 0 0 5 16 54 20 4 0 1 0 0 0 2 56 99 71 11 5 38 100
0 0 0 0 0 0 0 0 0 0 0 0 0 0 0 0 0 0 0 0 1 0 0 0 0 0 0 29 65 73 4 31 5 5 5 0 0 5 5 67 10 22 5 5
0 0 0 0 0 0 0 0 0 0 0 0 0 0 0 0 0 0 0 0 0 0 0 0 0 0 0 2 5 8 88 19 11 16 12 80 4 3 46 4 5 5 5 5
0 0 0 0 0 0 0 0 0 0 0 0 0 0 0 0 0 0 0 0 0 0 0 0 0 0 0 0 4 3 0 12 19 47 5 16 40 4 42 14 1 0 2 4
0 0 0 0 0 0 0 0 0 0 0 0 0 0 0 0 0 0 0 0 0 0 0 0 1 0 0 0 0 0 0 0 0 0 1 1 4 24 21 4 0 0 0 0
0 0 0 0 0 0 0 0 0 0 0 0 0 0 0 0 0 0 0 2 0 1 0 0 0 0 0 0 0 0 0 0 0 0 0 0 0 0 0 0 0 40 8 10
0 0 0 0 0 0 0 0 0 0 0 0 0 0 0 0 0 0 0 0 4 5 0 0 0 0 0 0 0 0 0 0 0 0 0 0 0 0 0 0 0 5 5 4
0 0 0 0 0 0 0 0 0 0 0 0 0 0 0 0 0 0 0 5 7 5 0 0 0 0 0 0 0 0 0 0 0 0 0 1 6 23 20 5 15 5 1 2
0 0 0 0 0 0 0 0 0 0 0 0 0 0 0 0 0 0 3 7 3 0 0 0 0 0 0 0 0 0 0 0 0 0 0 0 0 0 0 0 0 0 0 4
0 0 0 0 0 0 0 0 0 0 0 0 0 0 0 0 0 0 4 5 2 0 0 0 0 0 0 0 0 0 0 0 0 0 0 0 0 0 0 0 0 0 0 0
5 0 0 1 5 0 0 0 0 0 0 0 0 0 0 0 0 0 0 1 0 0 0 5 5 0 0 0 0 0 0 0 0 0 0 0 0 0 0 0 0 0 0 0
69 100 12 5 0 0 0 0 0 0 0 0 0 0 0 0 0 0 2 0 3 5 5 5 5 5 5 5 5 3 0 0 0 0 0 0 0 0 0 0 0 0 0 0
100 100 94 4 0 0 0 0 0 0 0 0 0 0 0 0 0 0 0 0 5 5 5 5 66 97 66 12 5 1 0 0 0 0 0 0 0 0 0 0 0 0 0 0
6 5 5 5 0 0 0 0 0 0 0 0 0 0 0 0 0 0 0 0 5 5 5 3 1 0 0 0 0 0 0 0 0 0 0 0 0 0 0 0 0 0 4 0
2 4 5 5 1 5 5 5 0 0 0 0 0 0 0 0 0 2 4 6 5 5 1 0 0 0 0 0 0 0 0 0 0 0 0 0 0 0 0 0 0 4 4 4
5 5 5 5 5 1 4 0 0 0 0 0 0 0 0 5 5 4 5 5 3 0 0 0 0 0 0 0 0 0 0 0 0 0 0 0 0 0 0 0 0 0 1 1
5 5 5 1 0 0 0 0 0 0 0 0 0 0 0 0 0 0 0 0 0 0 0 0 0 0 0 0 0 3 2 0 0 0 0 0 0 0 0 8 0 0 0 0
4 0 0 0 0 0 0 0 0 0 0 0 0 0 0 0 0 0 0 0 0 0 0 2 5 0 2 5 5 2 0 0 0 0 0 0 0 9 29 1 0 0 3 0
0 0 0 0 0 0 0 0 0 0 0 0 0 0 0 0 0 0 0 0 0 0 0 2 8 22 100 98 5 0 0 0 0 0 0 0 0 0 0 0 5 5 4 5
0 0 0 0 0 0 0 0 0 0 0 0 0 0 0 0 2 3 0 2 5 5 5 8 20 5 5 5 1 0 0 0 0 0 2 0 0 0 0 5 5 5 5 17
0 0 0 0 0 0 0 0 0 0 0 0 0 0 5 5 5 5 2 2 2 0 0 1 0 0 0 0 0 0 1 0 3 1 1 10 45 96 40 4 41 5 19 92
0 0 0 0 0 0 0 0 0 2 1 5 4 5 5 5 5 5 5 2 0 0 0 0 0 0 0 0 0 0 0 1 11 45 26 9 1 100 42 5 74 48 93 100
0 0 0 0 0 0 2 0 0 0 0 5 31 100 98 46 45 6 5 1 0 0 0 0 0 0 0 1 0 8 6 7 59 100 82 14 1 2 5 80 100 90 100 100
0 0 0 0 0 0 1 0 0 4 5 30 49 86 100 82 6 1 0 0 0 0 0 0 4 4 4 57 37 3 7 13 73 96 18 16 20 13 100 100 99 100 100 100
5 5 21 5 5 5 4 5 32 44 88 94 99 100 42 5 5 2 0 0 0 0 0 1 2 6 78 98 49 24 6 26 36 40 31 33 35 100 100 100 100 100 100 100